EXPRESS-AM5 1 39487U 13077A 21056.68499941 -.00000284 00000-0 00000+0 0 9997 2 39487 0.0507 286.2851 0000602 127.3683 128.7132 1.00272646 26926 BREEZE-M R/B 1 39488U 13077B 21055.83495699 -.00000160 00000-0 00000-0 0 9994 2 39488 5.4569 71.9363 0517546 142.9174 221.0343 0.89566016 23313